Tiempo atmosférico en la estación meteorológica de Barcelona, Museo Marítimo, Barcelona (37 m.)

Fecha
DESCASC
Temp. máxima en grados centígrados (hora)
DESCASC
Temp. mínima en grados centígrados (hora)
DESCASC
Temp. media en grados centígrados
DESCASC
Racha de viento máxima en m/sg (hora)
DESCASC
Velocidad máxima media en intervalos de 10 minutos(hora)
DESCASC
Precipitaciones diarias en mm
DESCASC
Precipitaciones de 00:00 a 06:00 en mm
DESCASC
Precipitaciones de 06:00 a 12:00 en mm
DESCASC
Precipitaciones de 12:00 a 18:00 en mm
DESCASC
Precipitaciones de 18:00 a 24:00 en mm
DESCASC
17-09-2017 23 (16:50) 14.4 (07:40) 18.7 10.56 (16:30) 5.83 (15:30) 0 0 0 0 0
16-09-2017 21.8 (15:50) 13.4 (07:00) 17.6 7.22 (17:30) 3.61 (17:30) 0 0 0 0 0
15-09-2017 20.7 (00:00) 14.7 (17:40) 17.7 5.83 (08:10) 2.78 (09:30) 7.2 3.4 0.6 2 1.2
14-09-2017 26.8 (14:50) 20.6 (00:00) 23.7 10.28 (17:20) 4.44 (12:30) 0.2 0 0 0 0.2
13-09-2017 26.7 (14:40) 19.5 (00:00) 23.1 10.28 (14:50) 5.83 (17:40) 0 0 0 0 0
12-09-2017 23.6 (16:30) 19.8 (00:00) 21.7 7.5 (18:00) 3.06 (19:20) 3 0 2.8 0 0.2
11-09-2017 25.9 (14:50) 18.1 (00:00) 22 7.78 (15:00) 3.33 (05:40) 0 0 0 0 0
10-09-2017 26.9 (17:10) 16 (00:00) 21.4 9.17 (17:20) 4.17 (17:20) 0 0 0 0 0
09-09-2017 25.3 (12:20) 18 (00:00) 21.6 10 (13:00) 4.44 (13:30) 11.4 0 0 11 0.4
08-09-2017 25.4 (16:20) 20.5 (00:00) 22.9 6.94 (10:10) 2.5 (07:50) 0 0 0 0 0
07-09-2017 25.5 (16:00) 20.5 (00:00) 23 7.5 (17:00) 3.89 (17:00) 7.4 6.8 0 0 0.6
06-09-2017 27.5 (13:30) 23 (00:00) 25.3 8.61 (17:30) 4.17 (15:20) 0.2 0 0 0.2 0
05-09-2017 28.9 (15:30) 21.4 (00:00) 25.1 9.17 (18:40) 4.72 (17:50) 0 0 0 0 0
04-09-2017 26.7 (16:10) 21.1 (00:00) 23.9 6.67 (15:40) 2.78 (14:50) 1 1 0 0 0
03-09-2017 26.5 (16:20) 19.5 (00:00) 23 5.83 (18:40) 2.5 (18:40) 0 0 0 0 0
02-09-2017 25.6 (16:50) 18.7 (00:00) 22.2 9.17 (14:10) 4.44 (16:00) 0.2 0.2 0 0 0
01-09-2017 25.2 (16:50) 20.3 (00:00) 22.8 7.78 (18:20) 3.33 (15:40) 0.4 0.2 0.2 0 0
31-08-2017 24.5 (01:00) 20.4 (00:00) 22.4 8.89 (12:10) 3.33 (18:50) 14.4 0 6.4 7.8 0.2
30-08-2017 27.7 (00:00) 23.4 (00:00) 25.6 9.17 (03:50) 5.28 (14:30) 0 0 0 0 0
29-08-2017 32 (14:10) 25.1 (00:00) 28.6 11.67 (15:50) 5.83 (15:50) 0 0 0 0 0
28-08-2017 29.5 (15:00) 24.3 (00:00) 26.9 5.83 (16:00) 2.22 (12:30) 0 0 0 0 0
27-08-2017 28.4 (15:20) 24.1 (00:00) 26.3 6.11 (15:30) 3.06 (20:50) 0.2 0 0.2 0 0
26-08-2017 28.8 (13:10) 23.8 (00:00) 26.3 5.56 (15:10) 2.78 (12:30) 0 0 0 0 0
25-08-2017 29.2 (16:00) 22.4 (00:00) 25.8 5 (19:20) 2.5 (19:00) 0.2 0 0.2 0 0
24-08-2017 30.1 (13:20) 23.9 (00:00) 27 8.61 (15:40) 4.44 (14:50) 0 0 0 0 0
23-08-2017 29.7 (16:30) 23 (00:00) 26.4 8.89 (16:50) 4.72 (16:50) 0 0 0 0 0
22-08-2017 28.9 (15:00) 22.7 (00:00) 25.8 9.72 (15:00) 4.72 (14:10) 0 0 0 0 0

Gráficas

Temp. máximas Temp. mínimas Temp. medias Precipitaciones Rachas de viento máximas Velocidades máximas media en intervalos de 10 minutos

Datos horarios

Fecha y hora oficial Temperatura (ºC) Velocidad del viento (km/h) Dirección del viento Racha (km/h) Dirección de racha Precipitación (mm) Presión (hPa) Tendencia (hPa) Humedad (%)
2017-09-20 23:00:00 19.7 3 Sudoeste 5 Sudoeste 0 -- -- 74
2017-09-20 22:00:00 20.2 3 Oeste 5 Oeste 0 -- -- 72
2017-09-20 21:00:00 20.6 4 Oeste 7 Oeste 0 -- -- 68
2017-09-20 20:00:00 21.3 3 Sudoeste 10 Oeste 0 -- -- 54
2017-09-20 19:00:00 22.7 4 Sudoeste 14 Sudoeste 0 -- -- 47
2017-09-20 18:00:00 -- 6 Sudoeste 14 Sudoeste 0 -- -- --
2017-09-20 17:00:00 23.4 5 Este 15 Sudeste 0 -- -- 57
2017-09-20 16:00:00 23.4 7 Este 18 Sudeste 0 -- -- 60
2017-09-20 15:00:00 22.8 7 Este 19 Nordeste 0 -- -- 61
2017-09-20 14:00:00 22.1 5 Este 18 Este 0 -- -- 62
2017-09-20 13:00:00 21.7 8 Este 17 Este 0 -- -- 63
2017-09-20 12:00:00 21.5 6 Este 17 Sudeste 0 -- -- 62
2017-09-20 11:00:00 20.5 5 Este 15 Nordeste 0 -- -- 65
2017-09-20 10:00:00 19.4 7 Nordeste 14 Nordeste 0 -- -- 67
2017-09-20 09:00:00 17.5 4 Este 12 Nordeste 0 -- -- 69
2017-09-20 08:00:00 16.7 4 Nordeste 11 Nordeste 0 -- -- 73
2017-09-20 07:00:00 17 5 Nordeste 11 Nordeste 0 -- -- 72
2017-09-20 06:00:00 17.5 3 Nordeste 8 Nordeste 0 -- -- 74
2017-09-20 05:00:00 17.9 3 Norte 12 Nordeste 0 -- -- 75
2017-09-20 04:00:00 18.3 2 Noroeste 5 Norte 0 -- -- 75
2017-09-20 03:00:00 19.2 2 Noroeste 5 Oeste 0 -- -- 68
2017-09-20 02:00:00 19.7 4 Oeste 6 Sudoeste 0 -- -- 66
2017-09-20 01:00:00 20.1 0 Calma 6 Sudoeste 0 -- -- 64
2017-09-20 00:00:00 20.5 3 Sudoeste 8 Oeste 0 -- -- 63
2017-09-19 23:00:00 20.1 0 Calma 7 Sudoeste 0 -- -- 62
2017-09-19 22:00:00 20.6 4 Sudoeste 10 Sudoeste 0 -- -- 60
2017-09-19 21:00:00 21 4 Sudoeste 13 Sudoeste 0 -- -- 58
2017-09-19 20:00:00 21.2 4 Oeste 23 Sudoeste 0 -- -- 58
2017-09-19 19:00:00 22.2 8 Sudoeste 22 Sudoeste 0 -- -- 54
2017-09-19 18:00:00 22.5 12 Sudoeste 24 Sudoeste 0 -- -- 56
2017-09-19 17:00:00 23.2 10 Sudoeste 20 Sudoeste 0 -- -- 59
2017-09-19 16:00:00 22.9 9 Este 18 Sudeste 0 -- -- 63
2017-09-19 15:00:00 23 6 Este 15 Este 0 -- -- 62
2017-09-19 14:00:00 22.4 6 Sudeste 18 Sudeste 0 -- -- 65
2017-09-19 13:00:00 21.9 5 Este 14 Este 0 -- -- 67
2017-09-19 12:00:00 21.6 5 Sudeste 13 Este 0 -- -- 63
2017-09-19 11:00:00 20.3 3 Este 9 Este 0 -- -- 69
2017-09-19 10:00:00 19 4 Sudoeste 12 Oeste 0 -- -- 64
2017-09-19 09:00:00 18.1 2 Nordeste 14 Nordeste 0 -- -- 72
2017-09-19 08:00:00 18 2 Nordeste 18 Norte 0 -- -- 72
2017-09-19 07:00:00 18.4 5 Nordeste 14 Norte 0 -- -- 76
2017-09-19 06:00:00 18.2 4 Este 11 Nordeste 0 -- -- 78
2017-09-19 05:00:00 18.1 0 Calma 6 Nordeste 0 -- -- 79
2017-09-19 04:00:00 18.7 2 Oeste 8 Oeste 0 -- -- 76
2017-09-19 03:00:00 19.6 2 Oeste 10 Sudoeste 0 -- -- 71
2017-09-19 02:00:00 19.9 4 Oeste 9 Sudoeste 0 -- -- 69
2017-09-19 01:00:00 19.8 2 Nordeste 14 Sudoeste 0 -- -- 69
2017-09-19 00:00:00 19.9 4 Este 16 Sudeste 0 -- -- 69
2017-09-18 23:00:00 19.7 7 Este 17 Sudeste 0 -- -- 70
2017-09-18 22:00:00 19.7 6 Este 16 Sudeste 0 -- -- 71
2017-09-18 21:00:00 19.5 4 Este 17 Este 0 -- -- 72
2017-09-18 20:00:00 19.6 4 Este 20 Sur 0 -- -- 71
2017-09-18 19:00:00 19.9 8 Este 22 Sudeste 0 -- -- 71
2017-09-18 18:00:00 21.1 8 Este 17 Este 0 -- -- 64
2017-09-18 17:00:00 21.1 9 Este 19 Este 0 -- -- 64
2017-09-18 16:00:00 20.5 8 Este 22 Sudeste 0 -- -- 68
2017-09-18 15:00:00 21.3 8 Este 22 Sudeste 0 -- -- 64
2017-09-18 14:00:00 20.6 9 Este 21 Nordeste 0 -- -- 64
2017-09-18 13:00:00 19.9 6 Este 17 Este 0 -- -- 69
2017-09-18 12:00:00 19.7 5 Este 17 Este 0 -- -- 70
2017-09-18 11:00:00 19.8 7 Este 23 Sudeste 0 -- -- 68
2017-09-18 10:00:00 19.2 7 Nordeste 20 Nordeste 0 -- -- 70
2017-09-18 09:00:00 19.4 6 Nordeste 26 Nordeste 0 -- -- 75
2017-09-18 08:00:00 18.8 7 Este 20 Nordeste 0 -- -- 77
2017-09-18 07:00:00 18.3 9 Nordeste 19 Este 0 -- -- 76
2017-09-18 06:00:00 19 6 Nordeste 21 Nordeste 0 -- -- 76
2017-09-18 05:00:00 18.5 6 Nordeste 22 Sudeste 0 -- -- 77
2017-09-18 04:00:00 17.6 4 Este 18 Este 0.4 -- -- 83
2017-09-18 03:00:00 19.6 6 Nordeste 21 Nordeste 0 -- -- 62
2017-09-18 02:00:00 20 5 Nordeste 11 Nordeste 0 -- -- 66
2017-09-18 01:00:00 20.4 3 Nordeste 9 Nordeste 0 -- -- 66
2017-09-18 00:00:00 20.7 2 Nordeste 6 Oeste 0 -- -- 69
2017-09-17 23:00:00 20.7 3 Sudoeste 12 Sudoeste 0 -- -- 68
2017-09-17 22:00:00 21.1 6 Oeste 14 Oeste 0 -- -- 65
2017-09-17 21:00:00 21.4 7 Oeste 17 Oeste 0 -- -- 64
2017-09-17 20:00:00 21.7 8 Oeste 20 Oeste 0 -- -- 63
2017-09-17 19:00:00 22 9 Oeste 25 Oeste 0 -- -- 59
2017-09-17 18:00:00 22.3 10 Oeste 36 Sudoeste 0 -- -- 55
2017-09-17 17:00:00 22.8 17 Oeste 38 Sudoeste 0 -- -- 54
2017-09-17 16:00:00 22.6 20 Oeste 37 Sudoeste 0 -- -- 53
2017-09-17 15:00:00 22.9 18 Sudoeste 37 Oeste 0 -- -- 49
2017-09-17 14:00:00 22.7 16 Oeste 32 Oeste 0 -- -- 45
2017-09-17 13:00:00 22.1 13 Oeste 27 Oeste 0 -- -- 43
2017-09-17 12:00:00 20.3 9 Oeste 19 Sudoeste 0 -- -- 47
2017-09-17 11:00:00 19.2 10 Oeste 19 Oeste 0 -- -- 43
2017-09-17 10:00:00 17.6 6 Sudoeste 17 Oeste 0 -- -- 48
2017-09-17 09:00:00 15.2 3 Sur 13 Nordeste 0 -- -- 56
2017-09-17 08:00:00 14.8 4 Norte 14 Norte 0 -- -- 56
2017-09-17 07:00:00 14.8 6 Oeste 10 Oeste 0 -- -- 58
2017-09-17 06:00:00 15.4 5 Oeste 8 Oeste 0 -- -- 56
2017-09-17 05:00:00 15 0 Calma 10 Nordeste 0 -- -- 68
2017-09-17 04:00:00 15.9 2 Nordeste 6 Norte 0 -- -- 73
2017-09-17 03:00:00 16.4 0 Calma 6 Norte 0 -- -- 68
2017-09-17 02:00:00 16.4 3 Nordeste 9 Nordeste 0 -- -- 65
2017-09-17 01:00:00 17.4 4 Este 10 Nordeste 0 -- -- 61
2017-09-17 00:00:00 18 2 Sur 5 Este 0 -- -- 54
2017-09-16 23:00:00 18.5 3 Oeste 6 Sudoeste 0 -- -- 60
2017-09-16 22:00:00 19 4 Sudoeste 8 Oeste 0 -- -- 58
2017-09-16 21:00:00 19.7 4 Sudoeste 9 Sudoeste 0 -- -- 54
2017-09-16 20:00:00 20.3 7 Oeste 17 Oeste 0 -- -- 51
2017-09-16 19:00:00 20.4 10 Sudoeste 22 Sudoeste 0 -- -- 54
2017-09-16 18:00:00 20.5 9 Sudoeste 26 Sudoeste 0 -- -- 53
2017-09-16 17:00:00 21.7 12 Sudoeste 25 Sudoeste 0 -- -- 49
2017-09-16 16:00:00 21.8 8 Sudoeste 25 Sudoeste 0 -- -- 52
2017-09-16 15:00:00 21 7 Oeste 21 Nordeste 0 -- -- 55
2017-09-16 14:00:00 20.8 7 Sudoeste 19 Oeste 0 -- -- 52
2017-09-16 13:00:00 19.9 3 Sur 16 Norte 0 -- -- 57
2017-09-16 12:00:00 19 5 Nordeste 17 Oeste 0 -- -- 57
2017-09-16 11:00:00 18.3 4 Oeste 12 Oeste 0 -- -- 60
2017-09-16 10:00:00 17.4 3 Nordeste 10 Nordeste 0 -- -- 64
2017-09-16 09:00:00 14.9 4 Oeste 11 Oeste 0 -- -- 73
2017-09-16 08:00:00 13.7 4 Oeste 10 Oeste 0 -- -- 78
2017-09-16 07:00:00 13.4 5 Oeste 10 Oeste 0 -- -- 81
2017-09-16 06:00:00 13.9 4 Oeste 12 Oeste 0 -- -- 78
2017-09-16 05:00:00 13.8 5 Oeste 13 Oeste 0 -- -- 79
2017-09-16 04:00:00 13.9 6 Oeste 17 Oeste 0 -- -- 80
2017-09-16 03:00:00 14.3 7 Oeste 17 Noroeste 0 -- -- 78
2017-09-16 02:00:00 15 8 Oeste 13 Oeste 0 -- -- 75
2017-09-16 01:00:00 15.1 6 Oeste 13 Oeste 0 -- -- 76
2017-09-16 00:00:00 15.3 4 Oeste 12 Nordeste 0 -- -- 79
2017-09-15 23:00:00 15.3 3 Nordeste 8 Oeste 0 -- -- 79
2017-09-15 22:00:00 15.3 3 Oeste 14 Oeste 0 -- -- 86
2017-09-15 21:00:00 15.3 2 Sudoeste 11 Oeste 0.4 -- -- 90
2017-09-15 20:00:00 14.8 3 Este 7 Nordeste 0.4 -- -- 92
2017-09-15 19:00:00 14.9 3 Nordeste 9 Sudeste 0.4 -- -- 92
2017-09-15 18:00:00 14.8 3 Nordeste 14 Norte 1.6 -- -- 91
2017-09-15 17:00:00 15.1 6 Este 19 Nordeste 0.2 -- -- 87
2017-09-15 16:00:00 15.9 8 Nordeste 17 Norte 0 -- -- 83
2017-09-15 15:00:00 16.6 4 Nordeste 9 Nordeste 0 -- -- 79
2017-09-15 14:00:00 16.1 2 Este 9 Este 0.2 -- -- 83
2017-09-15 13:00:00 15.7 3 Nordeste 9 Este 0 -- -- 86
2017-09-15 12:00:00 15.1 4 Nordeste 12 Nordeste 0.6 -- -- 90
2017-09-15 11:00:00 15.2 6 Nordeste 17 Norte 0 -- -- 87
2017-09-15 10:00:00 15.8 7 Nordeste 20 Nordeste 0 -- -- 82
2017-09-15 09:00:00 16.1 9 Nordeste 21 Nordeste 0 -- -- 81
2017-09-15 08:00:00 16.4 8 Nordeste 18 Nordeste 0 -- -- 79
2017-09-15 07:00:00 16.5 6 Nordeste 18 Nordeste 0 -- -- 81
2017-09-15 06:00:00 16.7 5 Nordeste 16 Nordeste 0 -- -- 81
2017-09-15 05:00:00 16.6 6 Nordeste 18 Nordeste 0 -- -- 84
2017-09-15 04:00:00 16.5 8 Nordeste 17 Este 0 -- -- 85
2017-09-15 03:00:00 17.9 3 Este 8 Nordeste 0 -- -- 87
2017-09-15 02:00:00 18.1 2 Este 6 Este 0.2 -- -- 87
2017-09-15 01:00:00 18.8 2 Este 14 Nordeste 3.2 -- -- 83
2017-09-15 00:00:00 20.7 7 Este 19 Este 0 -- -- 69
2017-09-14 23:00:00 21.3 8 Este 27 Sudeste 0 -- -- 66
2017-09-14 22:00:00 22.5 9 Este 24 Este 0 -- -- 61
2017-09-14 21:00:00 22.7 6 Este 21 Sudeste 0 -- -- 65
2017-09-14 20:00:00 22.6 9 Este 24 Sudeste 0 -- -- 67
2017-09-14 19:00:00 22.1 9 Este 30 Sudeste 0.2 -- -- 73
2017-09-14 18:00:00 22.5 10 Este 37 Sudeste 0 -- -- 72
2017-09-14 17:00:00 25.9 6 Sudoeste 17 Sudoeste 0 -- -- 77
2017-09-14 16:00:00 26.1 4 Norte 24 Sudoeste 0 -- -- 75
2017-09-14 15:00:00 26.7 8 Sudoeste 28 Sudoeste 0 -- -- 74
2017-09-14 14:00:00 26.1 12 Sudoeste 28 Sur 0 -- -- 75
2017-09-14 13:00:00 25.9 12 Oeste 26 Sudoeste 0 -- -- 75
2017-09-14 12:00:00 25.3 13 Oeste 25 Oeste 0 -- -- 77
2017-09-14 11:00:00 24.7 11 Oeste 24 Oeste 0 -- -- 80
2017-09-14 10:00:00 24.1 9 Sudoeste 23 Sudoeste 0 -- -- 82
2017-09-14 09:00:00 23.2 4 Oeste 10 Sudoeste 0 -- -- 83
2017-09-14 08:00:00 22.7 4 Sudoeste 8 Oeste 0 -- -- 83
2017-09-14 07:00:00 22.1 3 Sudoeste 5 Sudoeste 0 -- -- 84
2017-09-14 06:00:00 22 2 Sudoeste 5 Sur 0 -- -- 86
2017-09-14 05:00:00 22.6 3 Sudoeste 8 Oeste 0 -- -- 86
2017-09-14 04:00:00 22.6 2 Sudoeste 6 Oeste 0 -- -- 83
2017-09-14 03:00:00 22.8 0 Calma 5 Sudoeste 0 -- -- 82
2017-09-14 02:00:00 23 3 Sudoeste 8 Oeste 0 -- -- 81
2017-09-14 01:00:00 23.1 5 Oeste 12 Sudoeste 0 -- -- 81
2017-09-14 00:00:00 23.2 4 Sudoeste 16 Noroeste 0 -- -- 80
2017-09-13 23:00:00 23.4 7 Oeste 21 Oeste 0 -- -- 78
2017-09-13 22:00:00 23.6 12 Oeste 27 Oeste 0 -- -- 79
2017-09-13 21:00:00 23.8 13 Oeste 32 Oeste 0 -- -- 76
2017-09-13 20:00:00 24.2 14 Oeste 36 Sudoeste 0 -- -- 72
2017-09-13 19:00:00 25.5 12 Oeste 33 Sudoeste 0 -- -- 66
2017-09-13 18:00:00 25.7 18 Oeste 37 Sudoeste 0 -- -- 65
2017-09-13 17:00:00 26.2 19 Oeste 37 Oeste 0 -- -- 61
2017-09-13 16:00:00 26.4 18 Oeste 35 Oeste 0 -- -- 60
2017-09-13 15:00:00 26.6 18 Oeste 37 Oeste 0 -- -- 58
2017-09-13 14:00:00 26.4 20 Oeste 36 Oeste 0 -- -- 49
2017-09-13 13:00:00 25.9 11 Sudoeste 24 Sudoeste 0 -- -- 55
2017-09-13 12:00:00 25 8 Oeste 19 Sudoeste 0 -- -- 51
2017-09-13 11:00:00 24.2 3 Sudeste 12 Este 0 -- -- 55
2017-09-13 10:00:00 21.9 6 Oeste 10 Oeste 0 -- -- 75
2017-09-13 09:00:00 21.5 2 Nordeste 5 Oeste 0 -- -- 80
2017-09-13 08:00:00 19.7 0 Calma 6 Oeste 0 -- -- 88
2017-09-13 07:00:00 19.7 3 Oeste 5 Nordeste 0 -- -- 88
2017-09-13 06:00:00 20.1 3 Nordeste 10 Nordeste 0 -- -- 85
2017-09-13 05:00:00 20 4 Nordeste 8 Nordeste 0 -- -- 85
2017-09-13 04:00:00 20.6 0 Calma 6 Norte 0 -- -- 84
2017-09-13 03:00:00 21 0 Calma 13 Nordeste 0 -- -- 81
2017-09-13 02:00:00 21.7 0 Calma 7 Oeste 0 -- -- 79
2017-09-13 01:00:00 21.7 4 Oeste 14 Sudoeste 0 -- -- 78
2017-09-13 00:00:00 21.8 5 Oeste 10 Oeste 0 -- -- 78
2017-09-12 23:00:00 21.6 4 Oeste 12 Oeste 0 -- -- 79
2017-09-12 22:00:00 21.9 8 Sudoeste 19 Sur 0.2 -- -- 77
2017-09-12 21:00:00 21.9 8 Sudoeste 21 Oeste 0 -- -- 75
2017-09-12 20:00:00 22 9 Sudoeste 26 Sudoeste 0 -- -- 73
2017-09-12 19:00:00 22.2 6 Oeste 21 Sudoeste 0 -- -- 72
2017-09-12 18:00:00 22.4 10 Sudoeste 27 Sudoeste 0 -- -- 72
2017-09-12 17:00:00 23.4 6 Oeste 21 Sudoeste 0 -- -- 68
2017-09-12 16:00:00 23.4 6 Oeste 15 Sudoeste 0 -- -- 68
2017-09-12 15:00:00 21.8 6 Este 15 Este 0 -- -- 76
2017-09-12 14:00:00 22 7 Este 15 Sudeste 0 -- -- 76
2017-09-12 13:00:00 21.4 6 Este 18 Este 0 -- -- 81
2017-09-12 12:00:00 21.8 5 Oeste 15 Sudoeste 0 -- -- 80
2017-09-12 11:00:00 20.8 7 Oeste 19 Sudoeste 0 -- -- 83
2017-09-12 10:00:00 20.4 6 Sudoeste 15 Sudoeste 0 -- -- 82
2017-09-12 09:00:00 20.1 2 Este 19 Sudeste 2.2 -- -- 89
2017-09-12 08:00:00 20.4 4 Este 15 Sudeste 0 -- -- 86
2017-09-12 07:00:00 20.4 5 Este 14 Sudeste 0.6 -- -- 88
2017-09-12 06:00:00 21.1 5 Este 17 Este 0 -- -- 82
2017-09-12 05:00:00 21.2 6 Este 20 Este 0 -- -- 83
2017-09-12 04:00:00 21.6 4 Este 13 Sudeste 0 -- -- 84
2017-09-12 03:00:00 22.9 9 Este 21 Sudeste 0 -- -- 77
2017-09-12 02:00:00 23.4 6 Este 22 Este 0 -- -- 79
2017-09-12 01:00:00 23.5 5 Este 18 Sudeste 0 -- -- 80
2017-09-12 00:00:00 23.3 7 Este 18 Sudeste 0 -- -- 79
2017-09-11 23:00:00 23.2 7 Este 27 Sudeste 0 -- -- 79
2017-09-11 22:00:00 22.8 7 Nordeste 19 Nordeste 0 -- -- 79
2017-09-11 21:00:00 22.8 6 Este 24 Sudeste 0 -- -- 78
2017-09-11 20:00:00 23.4 8 Este 23 Sudeste 0 -- -- 78
2017-09-11 19:00:00 24.2 8 Este 22 Este 0 -- -- 65
2017-09-11 18:00:00 24.8 7 Este 26 Sudeste 0 -- -- 55
2017-09-11 17:00:00 25.1 11 Este 23 Este 0 -- -- 57
2017-09-11 16:00:00 24.9 8 Este 25 Sudeste 0 -- -- 51
2017-09-11 15:00:00 25.6 12 Este 28 Este 0 -- -- 47
2017-09-11 14:00:00 25.8 7 Este 19 Este 0 -- -- 53
2017-09-11 13:00:00 25 5 Este 19 Este 0 -- -- 53
2017-09-11 12:00:00 23.9 6 Este 16 Sudeste 0 -- -- 55
2017-09-11 11:00:00 23.6 5 Este 12 Sudeste 0 -- -- 54
2017-09-11 10:00:00 22.1 2 Este 11 Nordeste 0 -- -- 55
2017-09-11 09:00:00 19.8 4 Nordeste 13 Nordeste 0 -- -- 59
2017-09-11 08:00:00 18.1 0 Calma 15 Oeste 0 -- -- 63
2017-09-11 07:00:00 18.6 5 Oeste 13 Oeste 0 -- -- 60
2017-09-11 06:00:00 19.3 2 Sudeste 22 Oeste 0 -- -- 54
2017-09-11 05:00:00 18.9 0 Calma 12 Oeste 0 -- -- 53
2017-09-11 04:00:00 19.4 4 Sudoeste 14 Oeste 0 -- -- 51
2017-09-11 03:00:00 20.4 5 Oeste 20 Oeste 0 -- -- 50
2017-09-11 02:00:00 21 7 Oeste 17 Oeste 0 -- -- 50
2017-09-11 01:00:00 21.1 5 Oeste 9 Oeste 0 -- -- 57
2017-09-11 00:00:00 21.1 0 Calma 8 Norte 0 -- -- 62
2017-09-10 23:00:00 21.4 2 Nordeste 11 Este 0 -- -- 61
2017-09-10 22:00:00 21.6 4 Este 19 Este 0 -- -- 61
2017-09-10 21:00:00 21.7 5 Este 26 Sudeste 0 -- -- 64
2017-09-10 20:00:00 22.2 7 Nordeste 22 Este 0 -- -- 60
2017-09-10 19:00:00 22.6 6 Nordeste 26 Este 0 -- -- 59
2017-09-10 18:00:00 24.9 11 Nordeste 33 Sudoeste 0 -- -- 54
2017-09-10 17:00:00 26.3 5 Este 13 Este 0 -- -- 35
2017-09-10 16:00:00 25.5 5 Oeste 23 Sudoeste 0 -- -- 43
2017-09-10 15:00:00 23.7 10 Sudoeste 26 Sudoeste 0 -- -- 49
2017-09-10 14:00:00 23.2 9 Sudoeste 22 Sudoeste 0 -- -- 46
2017-09-10 13:00:00 22.6 6 Sudeste 19 Este 0 -- -- 44
2017-09-10 12:00:00 22 3 Sur 10 Nordeste 0 -- -- 46
2017-09-10 11:00:00 19.9 6 Nordeste 14 Nordeste 0 -- -- 49
2017-09-10 10:00:00 18.7 7 Nordeste 18 Nordeste 0 -- -- 52
2017-09-10 09:00:00 17.3 5 Nordeste 17 Norte 0 -- -- 55
2017-09-10 08:00:00 16.4 6 Nordeste 17 Nordeste 0 -- -- 57
2017-09-10 07:00:00 16.3 9 Oeste 17 Oeste 0 -- -- 61
2017-09-10 06:00:00 16.7 10 Oeste 17 Oeste 0 -- -- 64
2017-09-10 05:00:00 17 6 Oeste 13 Oeste 0 -- -- 63
2017-09-10 04:00:00 17.4 0 Calma 16 Sudoeste 0 -- -- 77
2017-09-10 03:00:00 18.2 3 Oeste 11 Nordeste 0 -- -- 74
2017-09-10 02:00:00 17.9 2 Este 5 Nordeste 0 -- -- 75
2017-09-10 01:00:00 17.7 0 Calma 5 Este 0 -- -- 74
2017-09-10 00:00:00 18.2 3 Nordeste 15 Nordeste 0 -- -- 72
2017-09-09 23:00:00 18.2 5 Nordeste 24 Este 0 -- -- 75
2017-09-09 22:00:00 18.7 9 Este 21 Nordeste 0 -- -- 68
2017-09-09 21:00:00 18.8 10 Este 25 Nordeste 0 -- -- 86
2017-09-09 20:00:00 19.5 7 Este 19 Este 0 -- -- 87
2017-09-09 19:00:00 19 3 Este 7 Este 0.4 -- -- 89
2017-09-09 18:00:00 19.1 0 Calma 7 Sudeste 0.4 -- -- 88
2017-09-09 17:00:00 18.8 3 Sudeste 16 Nordeste 0 -- -- 87
2017-09-09 16:00:00 19.9 6 Nordeste 19 Nordeste 0.4 -- -- 89
2017-09-09 15:00:00 19.9 5 Este 28 Sudeste 10.2 -- -- 92
2017-09-09 14:00:00 22.5 14 Este 35 Este 0 -- -- 73
2017-09-09 13:00:00 23.8 14 Este 36 Sudeste 0 -- -- 76
2017-09-09 12:00:00 24.9 9 Este 21 Este 0 -- -- 76
2017-09-09 11:00:00 24 6 Este 12 Nordeste 0 -- -- 77
2017-09-09 10:00:00 22.8 3 Nordeste 10 Nordeste 0 -- -- 80
2017-09-09 09:00:00 22.3 4 Nordeste 9 Nordeste 0 -- -- 81
2017-09-09 08:00:00 21.6 3 Nordeste 6 Nordeste 0 -- -- 81
2017-09-09 07:00:00 21.3 3 Nordeste 8 Norte 0 -- -- 80
2017-09-09 06:00:00 21.2 0 Calma 3 Nordeste 0 -- -- 81
2017-09-09 05:00:00 20.8 0 Calma 4 Sudeste 0 -- -- 81
2017-09-09 04:00:00 21 0 Calma 6 Este 0 -- -- 80
2017-09-09 03:00:00 21.9 2 Nordeste 9 Nordeste 0 -- -- 75
2017-09-09 02:00:00 22 0 Calma 3 Sudoeste 0 -- -- 70
2017-09-09 01:00:00 21.7 3 Oeste 4 Oeste 0 -- -- 67
2017-09-09 00:00:00 21.5 2 Oeste 6 Sudoeste 0 -- -- 67
2017-09-08 23:00:00 21.8 4 Oeste 7 Oeste 0 -- -- 67
2017-09-08 22:00:00 22.2 3 Sudoeste 8 Oeste 0 -- -- 66
2017-09-08 21:00:00 22.7 5 Sudoeste 10 Sudoeste 0 -- -- 64
2017-09-08 20:00:00 23.5 3 Sudoeste 12 Sudoeste 0 -- -- 58
2017-09-08 19:00:00 24.3 3 Este 19 Sudeste 0 -- -- 67
2017-09-08 18:00:00 24 7 Este 21 Sudeste 0 -- -- 73
2017-09-08 17:00:00 24.3 8 Este 22 Sudeste 0 -- -- 69
2017-09-08 16:00:00 25.3 6 Sudeste 18 Este 0 -- -- 64
2017-09-08 15:00:00 24.4 8 Este 19 Este 0 -- -- 69
2017-09-08 14:00:00 24.6 7 Este 19 Este 0 -- -- 68
2017-09-08 13:00:00 24.6 5 Este 19 Oeste 0 -- -- 68
2017-09-08 12:00:00 24.8 6 Este 21 Sudeste 0 -- -- 68
2017-09-08 11:00:00 23.9 5 Este 25 Este 0 -- -- 72
2017-09-08 10:00:00 23.3 6 Nordeste 19 Sudeste 0 -- -- 74
2017-09-08 09:00:00 21.6 5 Este 24 Sudeste 0 -- -- 78
2017-09-08 08:00:00 21.5 8 Este 20 Sudeste 0 -- -- 83
2017-09-08 07:00:00 20.5 5 Nordeste 14 Nordeste 0 -- -- 83
2017-09-08 06:00:00 20.9 3 Nordeste 13 Nordeste 0 -- -- 82
2017-09-08 05:00:00 21.1 4 Nordeste 9 Nordeste 0 -- -- 83
2017-09-08 04:00:00 20.7 0 Calma 5 Oeste 0 -- -- 80
2017-09-08 03:00:00 21.1 0 Calma 4 Oeste 0 -- -- 80
2017-09-08 02:00:00 21.7 0 Calma 6 Oeste 0 -- -- 78
2017-09-08 01:00:00 22.2 4 Oeste 7 Sudoeste 0 -- -- 79
2017-09-08 00:00:00 22.7 4 Oeste 8 Oeste 0 -- -- 81
2017-09-07 23:00:00 23 4 Oeste 13 Oeste 0 -- -- 82
2017-09-07 22:00:00 22.8 8 Oeste 19 Sudoeste 0.6 -- -- 83
2017-09-07 21:00:00 23.1 6 Sudoeste 21 Sudoeste 0 -- -- 82
2017-09-07 20:00:00 -- 9 Sudoeste 23 Sudoeste 0 -- -- --
2017-09-07 19:00:00 24 11 Sudoeste 23 Sudoeste 0 -- -- 75
2017-09-07 18:00:00 24.5 10 Sudoeste 26 Sudoeste 0 -- -- 71
2017-09-07 17:00:00 24.4 14 Sudoeste 27 Sudoeste 0 -- -- 69
2017-09-07 16:00:00 25.5 8 Sudoeste 23 Sudoeste 0 -- -- 66
2017-09-07 15:00:00 24.8 9 Sudoeste 23 Sudoeste 0 -- -- 65
2017-09-07 14:00:00 24.6 6 Sudoeste 16 Sudoeste 0 -- -- 65
2017-09-07 13:00:00 23.2 7 Sudoeste 18 Oeste 0 -- -- 68
2017-09-07 12:00:00 23 8 Oeste 15 Oeste 0 -- -- 62
2017-09-07 11:00:00 22.6 3 Sudoeste 13 Oeste 0 -- -- 56
2017-09-07 10:00:00 21.4 6 Oeste 16 Oeste 0 -- -- 55
2017-09-07 09:00:00 20.9 9 Oeste 16 Oeste 0 -- -- 57
2017-09-07 08:00:00 20.6 7 Oeste 15 Oeste 0 -- -- 61
2017-09-07 07:00:00 20.9 6 Oeste 11 Oeste 0 -- -- 66
2017-09-07 06:00:00 21.6 4 Oeste 9 Oeste 0 -- -- 82
2017-09-07 05:00:00 21.6 2 Nordeste 10 Nordeste 0 -- -- 88
2017-09-07 04:00:00 21.3 5 Nordeste 11 Sudeste 0.2 -- -- 91
2017-09-07 03:00:00 21.5 5 Nordeste 15 Sudeste 0.2 -- -- 91
2017-09-07 02:00:00 21.6 4 Nordeste 21 Este 6.4 -- -- 91
2017-09-07 01:00:00 22.9 10 Este 26 Sudeste 0 -- -- 86
2017-09-07 00:00:00 24.4 4 Oeste 16 Oeste 0 -- -- 82
2017-09-06 23:00:00 24.3 7 Oeste 15 Oeste 0 -- -- 81
2017-09-06 22:00:00 25 7 Sudoeste 18 Sudoeste 0 -- -- 78
2017-09-06 21:00:00 25.2 7 Oeste 23 Sudoeste 0 -- -- 76
2017-09-06 20:00:00 25.3 10 Sudoeste 25 Sudoeste 0 -- -- 75
2017-09-06 19:00:00 25.5 10 Sudoeste 25 Sudoeste 0 -- -- 75
2017-09-06 18:00:00 25.7 11 Sudoeste 31 Sudoeste 0.2 -- -- 74
2017-09-06 17:00:00 25.9 11 Sudoeste 30 Sudoeste 0 -- -- 75
2017-09-06 16:00:00 26.6 13 Sudoeste 28 Sudoeste 0 -- -- 69
2017-09-06 15:00:00 26.5 14 Sudoeste 27 Sudoeste 0 -- -- 70
2017-09-06 14:00:00 27.2 5 Oeste 22 Sudoeste 0 -- -- 70
2017-09-06 13:00:00 27 5 Nordeste 15 Sudeste 0 -- -- 73
2017-09-06 12:00:00 26.7 6 Sudeste 15 Sudeste 0 -- -- 73
2017-09-06 11:00:00 26 4 Este 11 Sudeste 0 -- -- 74
2017-09-06 10:00:00 25.9 5 Este 10 Sudeste 0 -- -- 75
2017-09-06 09:00:00 23.7 3 Este 6 Nordeste 0 -- -- 83
2017-09-06 08:00:00 23.2 0 Calma 4 Oeste 0 -- -- 84
2017-09-06 07:00:00 23.3 2 Sudoeste 5 Sudoeste 0 -- -- 84
2017-09-06 06:00:00 23.3 3 Este 6 Nordeste 0 -- -- 84
2017-09-06 05:00:00 23.1 0 Calma 4 Este 0 -- -- 84
2017-09-06 04:00:00 23.3 3 Nordeste 7 Nordeste 0 -- -- 81
2017-09-06 03:00:00 24 0 Calma 8 Oeste 0 -- -- 79
2017-09-06 02:00:00 24.4 4 Oeste 10 Oeste 0 -- -- 77
2017-09-06 01:00:00 24.7 6 Oeste 11 Oeste 0 -- -- 76
2017-09-06 00:00:00 24.9 5 Oeste 11 Sudoeste 0 -- -- 78
2017-09-05 23:00:00 25.3 5 Sudoeste 12 Sudoeste 0 -- -- 77
2017-09-05 22:00:00 25.2 4 Oeste 18 Sudoeste 0 -- -- 77
2017-09-05 21:00:00 25.4 9 Sudoeste 28 Sudoeste 0 -- -- 76
2017-09-05 20:00:00 26.1 7 Oeste 24 Sudoeste 0 -- -- 69
2017-09-05 19:00:00 27 15 Oeste 33 Sudoeste 0 -- -- 69
2017-09-05 18:00:00 28 14 Oeste 30 Oeste 0 -- -- 63
2017-09-05 17:00:00 28.4 14 Sudoeste 31 Sur 0 -- -- 61
2017-09-05 16:00:00 28.8 14 Sudoeste 32 Sudoeste 0 -- -- 60
2017-09-05 15:00:00 28.6 14 Sudoeste 28 Sur 0 -- -- 61
2017-09-05 14:00:00 28.3 12 Sudoeste 24 Sudoeste 0 -- -- 64
2017-09-05 13:00:00 28.1 9 Sudoeste 22 Sudoeste 0 -- -- 65
2017-09-05 12:00:00 27.8 7 Sudoeste 18 Sur 0 -- -- 63
2017-09-05 11:00:00 26.6 6 Sudoeste 13 Sudoeste 0 -- -- 64
2017-09-05 10:00:00 25.6 5 Oeste 9 Sudoeste 0 -- -- 65
2017-09-05 09:00:00 23.6 5 Oeste 8 Oeste 0 -- -- 69
2017-09-05 08:00:00 22.2 4 Oeste 6 Oeste 0 -- -- 74
2017-09-05 07:00:00 21.6 3 Oeste 5 Oeste 0 -- -- 77
2017-09-05 06:00:00 21.7 3 Oeste 5 Oeste 0 -- -- 77
2017-09-05 05:00:00 21.8 2 Oeste 5 Sudoeste 0 -- -- 78
2017-09-05 04:00:00 21.9 0 Calma 5 Oeste 0 -- -- 79
2017-09-05 03:00:00 22.6 0 Calma 4 Este 0 -- -- 76
2017-09-05 02:00:00 23.1 0 Calma 7 Nordeste 0 -- -- 75
2017-09-05 01:00:00 23.1 2 Este 5 Nordeste 0 -- -- 77
2017-09-05 00:00:00 23.3 0 Calma 5 Este 0 -- -- 76
2017-09-04 23:00:00 23.6 2 Sudeste 7 Sudeste 0 -- -- 73
2017-09-04 22:00:00 23.8 3 Este 9 Este 0 -- -- 71
2017-09-04 21:00:00 24.1 5 Este 14 Sudeste 0 -- -- 70
2017-09-04 20:00:00 24.5 6 Este 15 Este 0 -- -- 67
2017-09-04 19:00:00 25.4 8 Este 20 Sudeste 0 -- -- 66
2017-09-04 18:00:00 26.1 7 Este 21 Sudeste 0 -- -- 64
2017-09-04 17:00:00 26.3 8 Este 23 Este 0 -- -- 66
2017-09-04 16:00:00 26.6 9 Este 24 Este 0 -- -- 67
2017-09-04 15:00:00 26.3 10 Este 23 Sudeste 0 -- -- 67
2017-09-04 14:00:00 26.4 9 Este 24 Este 0 -- -- 62
2017-09-04 13:00:00 25.9 9 Este 21 Este 0 -- -- 66
2017-09-04 12:00:00 25.3 9 Este 21 Sudeste 0 -- -- 66
2017-09-04 11:00:00 24.5 6 Este 14 Sudeste 0 -- -- 76
2017-09-04 10:00:00 23 3 Este 12 Norte 0 -- -- 78
2017-09-04 09:00:00 22 3 Nordeste 12 Nordeste 0 -- -- 83
2017-09-04 08:00:00 21.2 6 Nordeste 12 Nordeste 0 -- -- 84
2017-09-04 07:00:00 21.3 4 Este 8 Nordeste 0 -- -- 86
2017-09-04 06:00:00 21.3 2 Este 4 Nordeste 1 -- -- 89
2017-09-04 05:00:00 21.2 0 Calma 6 Oeste 0 -- -- 91
2017-09-04 04:00:00 21.7 3 Oeste 9 Norte 0 -- -- 88
2017-09-04 03:00:00 21.7 3 Nordeste 6 Nordeste 0 -- -- 83
2017-09-04 02:00:00 22.8 2 Sudoeste 7 Oeste 0 -- -- 78
2017-09-04 01:00:00 22.7 3 Nordeste 8 Nordeste 0 -- -- 77
2017-09-04 00:00:00 22.6 3 Nordeste 10 Nordeste 0 -- -- 76
2017-09-03 23:00:00 23 3 Nordeste 13 Este 0 -- -- 76
2017-09-03 22:00:00 23.2 4 Este 13 Sudeste 0 -- -- 77
2017-09-03 21:00:00 23.3 5 Este 19 Este 0 -- -- 76
2017-09-03 20:00:00 23.7 6 Este 20 Sudeste 0 -- -- 75
2017-09-03 19:00:00 24.3 7 Este 21 Sudeste 0 -- -- 74
2017-09-03 18:00:00 25.6 5 Este 15 Sudoeste 0 -- -- 70
2017-09-03 17:00:00 25.9 5 Oeste 15 Sudoeste 0 -- -- 66
2017-09-03 16:00:00 26.4 4 Sur 14 Sudoeste 0 -- -- 60
2017-09-03 15:00:00 25.2 6 Este 13 Este 0 -- -- 61
2017-09-03 14:00:00 24.9 4 Este 14 Sudeste 0 -- -- 59
2017-09-03 13:00:00 24.4 5 Este 15 Sudeste 0 -- -- 60
2017-09-03 12:00:00 24.5 4 Sudeste 10 Sudeste 0 -- -- 61
2017-09-03 11:00:00 23.3 4 Este 10 Nordeste 0 -- -- 64
2017-09-03 10:00:00 21.7 6 Nordeste 13 Nordeste 0 -- -- 69
2017-09-03 09:00:00 20.9 2 Nordeste 10 Nordeste 0 -- -- 72
2017-09-03 08:00:00 19.8 3 Nordeste 8 Nordeste 0 -- -- 77
2017-09-03 07:00:00 20 2 Nordeste 6 Nordeste 0 -- -- 74
2017-09-03 06:00:00 20.2 0 Calma 4 Sudoeste 0 -- -- 75
2017-09-03 05:00:00 20.6 3 Oeste 5 Oeste 0 -- -- 72
2017-09-03 04:00:00 21.8 0 Calma 5 Sur 0 -- -- 71
2017-09-03 03:00:00 22.8 0 Calma 10 Oeste 0 -- -- 67
2017-09-03 02:00:00 23.3 4 Sudoeste 13 Oeste 0 -- -- 63
2017-09-03 01:00:00 23.4 5 Sudoeste 14 Sudoeste 0 -- -- 61
2017-09-03 00:00:00 23.4 4 Noroeste 16 Sudoeste 0 -- -- 58
2017-09-02 23:00:00 23.4 5 Oeste 16 Sudoeste 0 -- -- 60
2017-09-02 22:00:00 23.4 3 Nordeste 11 Noroeste 0 -- -- 60
2017-09-02 21:00:00 23.4 4 Este 17 Sudeste 0 -- -- 60
2017-09-02 20:00:00 23.9 3 Norte 20 Sudoeste 0 -- -- 53
2017-09-02 19:00:00 25 9 Sudoeste 28 Sudoeste 0 -- -- 52
2017-09-02 18:00:00 25.1 13 Sudoeste 29 Sudoeste 0 -- -- 51
2017-09-02 17:00:00 25.6 12 Oeste 28 Oeste 0 -- -- 48
2017-09-02 16:00:00 25.3 16 Sudoeste 29 Sur 0 -- -- 47
2017-09-02 15:00:00 24.9 12 Sudoeste 33 Sudoeste 0 -- -- 44
2017-09-02 14:00:00 24.3 14 Sudoeste 27 Sudoeste 0 -- -- 51
2017-09-02 13:00:00 24 10 Sudoeste 24 Sudoeste 0 -- -- 54
2017-09-02 12:00:00 23.4 9 Oeste 23 Oeste 0 -- -- 53
2017-09-02 11:00:00 22.8 6 Oeste 13 Oeste 0 -- -- 56
2017-09-02 10:00:00 21.6 4 Oeste 12 Oeste 0 -- -- 60
2017-09-02 09:00:00 20 6 Oeste 10 Nordeste 0 -- -- 61
2017-09-02 08:00:00 18.7 0 Calma 15 Nordeste 0 -- -- 67
2017-09-02 07:00:00 19.2 3 Norte 13 Nordeste 0 -- -- 67
2017-09-02 06:00:00 19.5 2 Nordeste 8 Nordeste 0.2 -- -- 63
2017-09-02 05:00:00 19.9 5 Nordeste 18 Oeste 0 -- -- 62
2017-09-02 04:00:00 20.9 5 Oeste 19 Oeste 0 -- -- 53
2017-09-02 03:00:00 23 11 Oeste 25 Oeste 0 -- -- 62
2017-09-02 02:00:00 22.9 5 Nordeste 20 Este 0 -- -- 70
2017-09-02 01:00:00 22.5 5 Noroeste 12 Sudoeste 0 -- -- 68
2017-09-02 00:00:00 22.7 6 Oeste 15 Noroeste 0 -- -- 68
2017-09-01 23:00:00 22.8 5 Oeste 13 Oeste 0 -- -- 70
2017-09-01 22:00:00 23.2 4 Norte 17 Sudoeste 0 -- -- 69
2017-09-01 21:00:00 23.4 4 Norte 16 Oeste 0 -- -- 68
2017-09-01 20:00:00 23.5 6 Oeste 23 Sudoeste 0 -- -- 67
2017-09-01 19:00:00 24.1 10 Sudoeste 28 Sudoeste 0 -- -- 67
2017-09-01 18:00:00 23.9 10 Sudoeste 23 Sudoeste 0 -- -- 66
2017-09-01 17:00:00 24.8 8 Oeste 26 Sudoeste 0 -- -- 64
2017-09-01 16:00:00 24.7 6 Oeste 26 Sur 0 -- -- 68
2017-09-01 15:00:00 24 8 Sudoeste 19 Sudoeste 0 -- -- 66
2017-09-01 14:00:00 24.3 6 Oeste 13 Noroeste 0 -- -- 63
2017-09-01 13:00:00 24.5 4 Este 15 Este 0 -- -- 61
2017-09-01 12:00:00 23.3 2 Sur 10 Oeste 0 -- -- 58
2017-09-01 11:00:00 22.3 4 Sudoeste 9 Sudoeste 0.2 -- -- 62
2017-09-01 10:00:00 21.4 3 Sudoeste 8 Oeste 0 -- -- 67
2017-09-01 09:00:00 21.2 3 Este 7 Nordeste 0 -- -- 77
2017-09-01 08:00:00 20.5 3 Este 10 Nordeste 0 -- -- 80
2017-09-01 07:00:00 20.9 3 Este 6 Nordeste 0 -- -- 79
2017-09-01 06:00:00 20.8 3 Nordeste 8 Nordeste 0 -- -- 79
2017-09-01 05:00:00 20.5 3 Nordeste 6 Nordeste 0 -- -- 80
2017-09-01 04:00:00 21.1 2 Este 4 Oeste 0 -- -- 78
2017-09-01 03:00:00 21.3 4 Oeste 5 Oeste 0.2 -- -- 75
2017-09-01 02:00:00 21.2 2 Nordeste 9 Nordeste 0 -- -- 72
2017-09-01 01:00:00 21.6 4 Este 10 Nordeste 0 -- -- 73
2017-09-01 00:00:00 21.6 3 Este 9 Sudeste 0 -- -- 73
2017-08-31 23:00:00 22.1 4 Este 13 Este 0 -- -- 73
2017-08-31 22:00:00 22.3 7 Este 19 Sudeste 0 -- -- 76
2017-08-31 21:00:00 22.2 8 Este 26 Sudeste 0 -- -- 76
2017-08-31 20:00:00 22.2 9 Este 26 Este 0 -- -- 77
2017-08-31 19:00:00 22.2 11 Este 28 Sudeste 0.2 -- -- 77
2017-08-31 18:00:00 22.4 8 Este 24 Este 0 -- -- 79
2017-08-31 17:00:00 22.4 9 Este 22 Este 0 -- -- 79
2017-08-31 16:00:00 22.8 8 Este 20 Este 0 -- -- 80
2017-08-31 15:00:00 22.6 7 Este 20 Nordeste 1 -- -- 83
2017-08-31 14:00:00 21.3 6 Este 19 Este 0 -- -- 86
2017-08-31 13:00:00 20.4 5 Este 32 Nordeste 6.8 -- -- 91
2017-08-31 12:00:00 22.2 8 Sur 23 Oeste 6 -- -- 86
2017-08-31 11:00:00 23.2 5 Nordeste 14 Nordeste 0 -- -- 77
2017-08-31 10:00:00 22.6 6 Nordeste 12 Nordeste 0 -- -- 82
2017-08-31 09:00:00 21.9 4 Nordeste 13 Nordeste 0.2 -- -- 89
2017-08-31 08:00:00 22.1 5 Nordeste 15 Nordeste 0 -- -- 89
2017-08-31 07:00:00 23.2 6 Nordeste 15 Nordeste 0.2 -- -- 81
2017-08-31 06:00:00 23.4 0 Calma 6 Este 0 -- -- 79
2017-08-31 05:00:00 23.5 0 Calma 6 Oeste 0 -- -- 78
2017-08-31 04:00:00 24.2 4 Oeste 6 Sudoeste 0 -- -- 73
2017-08-31 03:00:00 24.2 2 Sudoeste 6 Sudoeste 0 -- -- 71
2017-08-31 02:00:00 24.5 3 Oeste 10 Oeste 0 -- -- 71
2017-08-31 01:00:00 24.5 5 Sudoeste 9 Oeste 0 -- -- 73
2017-08-31 00:00:00 24.4 5 Sudoeste 12 Oeste 0 -- -- 73
2017-08-30 23:00:00 24.8 4 Oeste 20 Sudoeste 0 -- -- 70
2017-08-30 22:00:00 25 7 Oeste 18 Sudoeste 0 -- -- 72
2017-08-30 21:00:00 25 5 Sudoeste 18 Oeste 0 -- -- 72
2017-08-30 20:00:00 25.4 10 Oeste 22 Sudoeste 0 -- -- 71
2017-08-30 19:00:00 25.7 11 Sudoeste 26 Oeste 0 -- -- 68
2017-08-30 18:00:00 26 12 Oeste 30 Oeste 0 -- -- 65
2017-08-30 17:00:00 27.2 14 Oeste 31 Oeste 0 -- -- 61
2017-08-30 16:00:00 27.4 16 Oeste 31 Oeste 0 -- -- 60
2017-08-30 15:00:00 26.6 16 Oeste 33 Oeste 0 -- -- 61
2017-08-30 14:00:00 27.2 17 Oeste 28 Oeste 0 -- -- 55
2017-08-30 13:00:00 26.9 13 Oeste 23 Oeste 0 -- -- 54
2017-08-30 12:00:00 26.6 8 Oeste 20 Noroeste 0 -- -- 52
2017-08-30 11:00:00 26.6 9 Oeste 16 Oeste 0 -- -- 51
2017-08-30 10:00:00 25.8 5 Oeste 10 Oeste 0 -- -- 53
2017-08-30 09:00:00 24.3 5 Sudoeste 13 Oeste 0 -- -- 62
2017-08-30 08:00:00 24 9 Oeste 18 Oeste 0 -- -- 60
2017-08-30 07:00:00 23.7 6 Oeste 20 Oeste 0 -- -- 67
2017-08-30 06:00:00 23.8 7 Oeste 24 Oeste 0 -- -- 68
2017-08-30 05:00:00 24.5 12 Oeste 31 Oeste 0 -- -- 63
2017-08-30 04:00:00 25.7 14 Oeste 33 Noroeste 0 -- -- 60
2017-08-30 03:00:00 26.9 10 Oeste 21 Sudoeste 0 -- -- 47
2017-08-30 02:00:00 26.9 6 Oeste 13 Oeste 0 -- -- 48
2017-08-30 01:00:00 26.8 2 Sudoeste 8 Oeste 0 -- -- 50
2017-08-30 00:00:00 27.7 6 Oeste 15 Oeste 0 -- -- 46
2017-08-29 23:00:00 27 7 Oeste 17 Oeste 0 -- -- 52
2017-08-29 22:00:00 26.8 6 Oeste 17 Oeste 0 -- -- 65
2017-08-29 21:00:00 27.7 6 Oeste 12 Oeste 0 -- -- 57
2017-08-29 20:00:00 28.3 5 Oeste 14 Oeste 0 -- -- 53
2017-08-29 19:00:00 28.2 8 Oeste 26 Oeste 0 -- -- 56
2017-08-29 18:00:00 28.7 14 Oeste 28 Sudoeste 0 -- -- 60
2017-08-29 17:00:00 29.7 14 Sudoeste 29 Oeste 0 -- -- 58
2017-08-29 16:00:00 28.8 19 Oeste 42 Sudoeste 0 -- -- 66
2017-08-29 15:00:00 31.4 9 Sudoeste 24 Sudoeste 0 -- -- 55
2017-08-29 14:00:00 31.9 10 Sudoeste 24 Oeste 0 -- -- 47
2017-08-29 13:00:00 29.6 13 Oeste 22 Sur 0 -- -- 62
2017-08-29 12:00:00 29.2 9 Sudoeste 17 Sur 0 -- -- 65
2017-08-29 11:00:00 28.9 6 Oeste 16 Oeste 0 -- -- 60
2017-08-29 10:00:00 28 8 Oeste 13 Oeste 0 -- -- 59
2017-08-29 09:00:00 26.4 5 Oeste 14 Oeste 0 -- -- 65
2017-08-29 08:00:00 25.7 7 Oeste 15 Oeste 0 -- -- 69
2017-08-29 07:00:00 25.2 7 Oeste 12 Oeste 0 -- -- 72
2017-08-29 06:00:00 25.4 3 Oeste 13 Oeste 0 -- -- 73
2017-08-29 05:00:00 25.5 6 Oeste 14 Oeste 0 -- -- 79
2017-08-29 04:00:00 25.8 3 Oeste 12 Oeste 0 -- -- 84
2017-08-29 03:00:00 25.9 7 Oeste 13 Sudoeste 0 -- -- 79
2017-08-29 02:00:00 26.2 4 Sudoeste 12 Oeste 0 -- -- 79
2017-08-29 01:00:00 26.7 5 Oeste 16 Oeste 0 -- -- 80
2017-08-29 00:00:00 26.7 8 Oeste 15 Oeste 0 -- -- 80
2017-08-28 23:00:00 26.5 2 Sur 13 Sudoeste 0 -- -- 83
2017-08-28 22:00:00 26.5 8 Sudoeste 15 Sudoeste 0 -- -- 84
2017-08-28 21:00:00 26.4 3 Este 8 Sudeste 0 -- -- 83
2017-08-28 20:00:00 26.7 3 Sudeste 9 Sudeste 0 -- -- 82
2017-08-28 19:00:00 26.9 4 Este 13 Sudeste 0 -- -- 79
2017-08-28 18:00:00 27.4 4 Este 13 Sudoeste 0 -- -- 76
2017-08-28 17:00:00 28.6 4 Nordeste 15 Sudeste 0 -- -- 74
2017-08-28 16:00:00 28.9 7 Este 21 Este 0 -- -- 71
2017-08-28 15:00:00 29.5 7 Este 18 Este 0 -- -- 69
2017-08-28 14:00:00 29.1 6 Este 18 Sudeste 0 -- -- 73
2017-08-28 13:00:00 28.9 6 Este 15 Sudeste 0 -- -- 71
2017-08-28 12:00:00 27.6 5 Este 14 Este 0 -- -- 74
2017-08-28 11:00:00 27.1 5 Sudoeste 10 Este 0 -- -- 76
2017-08-28 10:00:00 26.5 5 Este 11 Sudeste 0 -- -- 79
2017-08-28 09:00:00 25.2 2 Este 6 Sudeste 0 -- -- 87
2017-08-28 08:00:00 24.6 0 Calma 4 Oeste 0 -- -- 89
2017-08-28 07:00:00 24.6 0 Calma 6 Este 0 -- -- 89
2017-08-28 06:00:00 24.8 3 Nordeste 8 Este 0 -- -- 88
2017-08-28 05:00:00 25.1 4 Este 9 Nordeste 0 -- -- 89
2017-08-28 04:00:00 25.3 4 Nordeste 9 Nordeste 0 -- -- 88
2017-08-28 03:00:00 25.6 4 Nordeste 8 Nordeste 0 -- -- 85
2017-08-28 02:00:00 25.9 5 Nordeste 12 Nordeste 0 -- -- 82
2017-08-28 01:00:00 25.8 2 Sur 8 Oeste 0 -- -- 82
2017-08-28 00:00:00 26.1 3 Sudoeste 9 Oeste 0 -- -- 80
2017-08-27 23:00:00 26.3 3 Sudoeste 12 Oeste 0 -- -- 81
2017-08-27 22:00:00 26.5 8 Sudoeste 16 Sudoeste 0 -- -- 82
2017-08-27 21:00:00 26.9 6 Oeste 21 Sudoeste 0 -- -- 80
2017-08-27 20:00:00 27.3 8 Nordeste 15 Norte 0 -- -- 73
2017-08-27 19:00:00 27.3 3 Sudeste 13 Sudoeste 0 -- -- 77
2017-08-27 18:00:00 27 4 Este 15 Sudeste 0 -- -- 77
2017-08-27 17:00:00 27.8 6 Este 18 Este 0 -- -- 74
2017-08-27 16:00:00 28.1 10 Este 22 Sur 0 -- -- 73
2017-08-27 15:00:00 28.2 8 Sudeste 19 Sudeste 0 -- -- 72
2017-08-27 14:00:00 28 7 Sudeste 18 Este 0 -- -- 74
2017-08-27 13:00:00 28 7 Este 21 Este 0 -- -- 74
2017-08-27 12:00:00 27.4 8 Este 18 Este 0 -- -- 75
2017-08-27 11:00:00 27.2 6 Este 17 Este 0 -- -- 74
2017-08-27 10:00:00 25.8 6 Este 15 Este 0 -- -- 82
2017-08-27 09:00:00 25.2 4 Nordeste 9 Nordeste 0 -- -- 82
2017-08-27 08:00:00 24.1 2 Nordeste 10 Nordeste 0.2 -- -- 86
2017-08-27 07:00:00 24.5 3 Nordeste 9 Nordeste 0 -- -- 85
2017-08-27 06:00:00 24.7 3 Nordeste 9 Norte 0 -- -- 85
2017-08-27 05:00:00 24.7 0 Calma 4 Este 0 -- -- 89
2017-08-27 04:00:00 25.4 2 Este 5 Este 0 -- -- 85
2017-08-27 03:00:00 25.5 2 Sudeste 5 Sur 0 -- -- 84
2017-08-27 02:00:00 25.5 0 Calma 5 Sudeste 0 -- -- 83
2017-08-27 01:00:00 25.6 3 Este 8 Sudeste 0 -- -- 83
2017-08-27 00:00:00 25.7 3 Sudeste 8 Sudeste 0 -- -- 82
2017-08-26 23:00:00 25.8 2 Sudeste 5 Oeste 0 -- -- 80
2017-08-26 22:00:00 25.9 2 Sudoeste 9 Este 0 -- -- 80
2017-08-26 21:00:00 26.2 5 Este 10 Este 0 -- -- 80
2017-08-26 20:00:00 26.6 6 Este 15 Sudeste 0 -- -- 79
2017-08-26 19:00:00 27.8 5 Este 13 Sudeste 0 -- -- 73
2017-08-26 18:00:00 28.5 5 Este 15 Sudeste 0 -- -- 71
2017-08-26 17:00:00 28.6 6 Este 17 Este 0 -- -- 71
2017-08-26 16:00:00 28.7 9 Este 20 Sudeste 0 -- -- 71
2017-08-26 15:00:00 28.7 7 Este 19 Sudeste 0 -- -- 72
2017-08-26 14:00:00 28.6 8 Este 18 Este 0 -- -- 74
2017-08-26 13:00:00 28.7 8 Este 18 Sudeste 0 -- -- 73
2017-08-26 12:00:00 28.7 7 Sudeste 17 Sudeste 0 -- -- 73
2017-08-26 11:00:00 28.2 6 Este 13 Sudeste 0 -- -- 73
2017-08-26 10:00:00 27.2 6 Este 14 Este 0 -- -- 75
2017-08-26 09:00:00 24.9 7 Nordeste 14 Nordeste 0 -- -- 74
2017-08-26 08:00:00 23.9 8 Nordeste 14 Nordeste 0 -- -- 78
2017-08-26 07:00:00 24.6 4 Este 8 Nordeste 0 -- -- 84
2017-08-26 06:00:00 24.3 4 Nordeste 8 Este 0 -- -- 85
2017-08-26 05:00:00 24.4 3 Este 8 Nordeste 0 -- -- 86
2017-08-26 04:00:00 25 3 Este 8 Nordeste 0 -- -- 84
2017-08-26 03:00:00 25.1 3 Nordeste 10 Este 0 -- -- 82
2017-08-26 02:00:00 25.3 4 Nordeste 11 Nordeste 0 -- -- 82
2017-08-26 01:00:00 25.1 3 Este 9 Este 0 -- -- 83
2017-08-26 00:00:00 25.4 0 Calma 7 Sudeste 0 -- -- 82
2017-08-25 23:00:00 25.8 3 Este 7 Este 0 -- -- 81
2017-08-25 22:00:00 25.9 4 Este 13 Sudeste 0 -- -- 79
2017-08-25 21:00:00 26.2 4 Este 13 Sudeste 0 -- -- 78
2017-08-25 20:00:00 26.8 5 Este 18 Sudeste 0 -- -- 77
2017-08-25 19:00:00 27.9 9 Este 17 Este 0 -- -- 72
2017-08-25 18:00:00 29 5 Noroeste 14 Este 0 -- -- 69
2017-08-25 17:00:00 28.9 5 Oeste 15 Sudoeste 0 -- -- 66
2017-08-25 16:00:00 29.2 6 Sudeste 16 Sudeste 0 -- -- 69
2017-08-25 15:00:00 28.8 7 Este 17 Este 0 -- -- 71
2017-08-25 14:00:00 28.9 6 Este 16 Sudeste 0 -- -- 75
2017-08-25 13:00:00 28.6 6 Este 13 Este 0 -- -- 75
2017-08-25 12:00:00 28.3 6 Sudeste 12 Sudeste 0 -- -- 74
2017-08-25 11:00:00 27.6 7 Sudeste 12 Sudeste 0 -- -- 77
2017-08-25 10:00:00 26.7 3 Este 9 Este 0 -- -- 76
2017-08-25 09:00:00 24.4 4 Este 6 Este 0 -- -- 77
2017-08-25 08:00:00 22.8 3 Nordeste 5 Nordeste 0.2 -- -- 75
2017-08-25 07:00:00 23 0 Calma 4 Nordeste 0 -- -- 79
2017-08-25 06:00:00 23.3 0 Calma 4 Este 0 -- -- 81
2017-08-25 05:00:00 23.6 0 Calma 5 Nordeste 0 -- -- 82
2017-08-25 04:00:00 24.3 2 Este 5 Nordeste 0 -- -- 80
2017-08-25 03:00:00 24.6 2 Este 6 Este 0 -- -- 81
2017-08-25 02:00:00 25.1 3 Oeste 4 Oeste 0 -- -- 82
2017-08-25 01:00:00 25.3 3 Oeste 6 Oeste 0 -- -- 81
2017-08-25 00:00:00 25.4 4 Oeste 6 Oeste 0 -- -- 80
2017-08-24 23:00:00 25.7 5 Sudoeste 8 Oeste 0 -- -- 78
2017-08-24 22:00:00 26 4 Oeste 9 Oeste 0 -- -- 77
2017-08-24 21:00:00 26.4 4 Oeste 14 Sur 0 -- -- 73
2017-08-24 20:00:00 26.9 7 Sudoeste 22 Sur 0 -- -- 73
2017-08-24 19:00:00 27.9 9 Sudoeste 23 Sudoeste 0 -- -- 69
2017-08-24 18:00:00 28.6 12 Sudoeste 25 Sudoeste 0 -- -- 69
2017-08-24 17:00:00 29 12 Sudoeste 27 Sudoeste 0 -- -- 66
2017-08-24 16:00:00 29.1 13 Sudoeste 31 Sudoeste 0 -- -- 66
2017-08-24 15:00:00 29.2 15 Sudoeste 30 Sudoeste 0 -- -- 62
2017-08-24 14:00:00 29.8 12 Sudoeste 24 Sudoeste 0 -- -- 52
2017-08-24 13:00:00 30 9 Oeste 28 Sudoeste 0 -- -- 51
2017-08-24 12:00:00 28.4 11 Oeste 23 Oeste 0 -- -- 66
2017-08-24 11:00:00 28 10 Sudoeste 18 Oeste 0 -- -- 64
2017-08-24 10:00:00 26.4 9 Oeste 19 Oeste 0 -- -- 75
2017-08-24 09:00:00 25.2 6 Oeste 11 Oeste 0 -- -- 79
2017-08-24 08:00:00 24.1 5 Oeste 9 Oeste 0 -- -- 82
2017-08-24 07:00:00 24.1 3 Oeste 8 Oeste 0 -- -- 75
2017-08-24 06:00:00 24.4 3 Noroeste 9 Sudoeste 0 -- -- 59
2017-08-24 05:00:00 24.6 4 Oeste 14 Oeste 0 -- -- 69
2017-08-24 04:00:00 24.9 7 Oeste 12 Oeste 0 -- -- 70
2017-08-24 03:00:00 24.1 2 Sur 9 Oeste 0 -- -- 72
2017-08-24 02:00:00 24.7 2 Sudoeste 10 Oeste 0 -- -- 69
2017-08-24 01:00:00 25.1 5 Oeste 13 Oeste 0 -- -- 66
2017-08-24 00:00:00 25.3 4 Oeste 11 Sudoeste 0 -- -- 69
2017-08-23 23:00:00 25.6 5 Oeste 16 Oeste 0 -- -- 75
2017-08-23 22:00:00 26.2 9 Oeste 15 Oeste 0 -- -- 72
2017-08-23 21:00:00 26.7 3 Sudoeste 16 Oeste 0 -- -- 68
2017-08-23 20:00:00 27.2 5 Oeste 23 Sudoeste 0 -- -- 64
2017-08-23 19:00:00 28.1 12 Sudoeste 30 Sudoeste 0 -- -- 60
2017-08-23 18:00:00 28.7 15 Oeste 28 Oeste 0 -- -- 56
2017-08-23 17:00:00 29.2 13 Oeste 32 Oeste 0 -- -- 57
2017-08-23 16:00:00 29.6 12 Sudoeste 26 Sur 0 -- -- 60
2017-08-23 15:00:00 28.7 13 Sudoeste 24 Sudoeste 0 -- -- 62
2017-08-23 14:00:00 27.8 9 Sudoeste 22 Sudoeste 0 -- -- 69
2017-08-23 13:00:00 28.9 9 Sudoeste 21 Sudoeste 0 -- -- 64
2017-08-23 12:00:00 27.9 5 Sudoeste 17 Sudoeste 0 -- -- 66
2017-08-23 11:00:00 27.3 4 Noroeste 14 Este 0 -- -- 72
2017-08-23 10:00:00 26.5 3 Este 10 Este 0 -- -- 73
2017-08-23 09:00:00 24.4 3 Este 6 Sudeste 0 -- -- 79
2017-08-23 08:00:00 23.3 2 Oeste 5 Oeste 0 -- -- 83
2017-08-23 07:00:00 23.3 3 Oeste 6 Oeste 0 -- -- 83
2017-08-23 06:00:00 23.4 4 Sudoeste 9 Oeste 0 -- -- 80
2017-08-23 05:00:00 23.4 4 Oeste 9 Oeste 0 -- -- 79
2017-08-23 04:00:00 24 6 Oeste 13 Oeste 0 -- -- 78
2017-08-23 03:00:00 24 3 Oeste 7 Oeste 0 -- -- 76
2017-08-23 02:00:00 24.2 5 Sudoeste 9 Sudoeste 0 -- -- 76
2017-08-23 01:00:00 24.5 5 Sudoeste 8 Sudoeste 0 -- -- 80
2017-08-23 00:00:00 24.8 4 Sudoeste 9 Oeste 0 -- -- 81
2017-08-22 23:00:00 25.1 4 Sudoeste 10 Sudoeste 0 -- -- 78
2017-08-22 22:00:00 25.4 7 Sudoeste 14 Sudoeste 0 -- -- 77
2017-08-22 21:00:00 26 8 Sudoeste 18 Oeste 0 -- -- 74
2017-08-22 20:00:00 26.8 12 Oeste 25 Oeste 0 -- -- 67
2017-08-22 19:00:00 27.8 11 Oeste 32 Oeste 0 -- -- 65
2017-08-22 18:00:00 28.3 14 Sudoeste 28 Sudoeste 0 -- -- 66
2017-08-22 17:00:00 28.7 16 Sudoeste 34 Oeste 0 -- -- 65
2017-08-22 16:00:00 28.8 14 Oeste 32 Oeste 0 -- -- 66
2017-08-22 15:00:00 28.9 16 Sudoeste 35 Oeste 0 -- -- 65
2017-08-22 14:00:00 28.7 15 Sudoeste 30 Oeste 0 -- -- 65
2017-08-22 13:00:00 28.5 12 Sudoeste 24 Oeste 0 -- -- 66
2017-08-22 12:00:00 28 12 Oeste 30 Sudoeste 0 -- -- 68
2017-08-22 11:00:00 27.2 11 Oeste 23 Oeste 0 -- -- 70
2017-08-22 10:00:00 25.9 10 Oeste 18 Oeste 0 -- -- 71
2017-08-22 09:00:00 24.4 8 Oeste 13 Sudoeste 0 -- -- 75
2017-08-22 08:00:00 23 4 Oeste 7 Oeste 0 -- -- 82
2017-08-22 07:00:00 23.3 3 Oeste 7 Oeste 0 -- -- 83
2017-08-22 06:00:00 23.5 3 Sudoeste 7 Oeste 0 -- -- 82
2017-08-22 05:00:00 23.7 5 Oeste 12 Sudoeste 0 -- -- 81
2017-08-22 04:00:00 24.1 3 Sudoeste 8 Oeste 0 -- -- 81
2017-08-22 03:00:00 24.4 4 Oeste 8 Oeste 0 -- -- 79
2017-08-22 02:00:00 24.6 4 Sudoeste 6 Sudoeste 0 -- -- 78
2017-08-22 01:00:00 24.7 2 Oeste 4 Oeste 0 -- -- 76
2017-08-22 00:00:00 24.8 3 Oeste 5 Sudoeste 0 -- -- 74